Zurück zum Katalog

STARLINK-5125

AktivKommunikationVLEO
NORAD 53994·PAYLOAD·🇺🇸 United States

Gestartet Oct 5, 2022 von Vandenberg Space Force Base

Loading…

Nächste Überflüge (nächste 24 Stunden)

TLE

AktuellSource: CelesTrak SupGP

Epoche: Sep 15, 2026, 02:44 UTC

1 53994C 22125AG  26258.11437500  .00706630  00000+0  32403-1 0  2588
2 53994  53.1593  82.7181 0001303  86.8228 326.2158 15.19577265    12

Verfolge STARLINK-5125 in Echtzeit mit AllMySat

Download on the App Store